Year,Month,Day,Hour,Minute,Value (Times are PST for temperature in C)
2015,07,19,00,00,23.60
2015,07,19,00,01,23.60
2015,07,19,00,02,23.60
2015,07,19,00,03,23.50
2015,07,19,00,04,23.50
2015,07,19,00,05,23.50
2015,07,19,00,06,23.50
2015,07,19,00,07,23.50
2015,07,19,00,08,23.40
2015,07,19,00,09,23.40
2015,07,19,00,10,23.40
2015,07,19,00,11,23.40
2015,07,19,00,12,23.40
2015,07,19,00,13,23.40
2015,07,19,00,14,23.30
2015,07,19,00,15,23.30
2015,07,19,00,16,23.30
2015,07,19,00,17,23.30
2015,07,19,00,18,23.30
2015,07,19,00,19,23.20
2015,07,19,00,20,23.20
2015,07,19,00,21,23.20
2015,07,19,00,22,23.20
2015,07,19,00,23,23.20
2015,07,19,00,24,23.20
2015,07,19,00,25,23.10
2015,07,19,00,26,23.10
2015,07,19,00,27,23.10
2015,07,19,00,28,23.10
2015,07,19,00,29,23.20
2015,07,19,00,30,23.20
2015,07,19,00,31,23.20
2015,07,19,00,32,23.20
2015,07,19,00,33,23.20
2015,07,19,00,34,23.20
2015,07,19,00,35,23.20
2015,07,19,00,36,23.10
2015,07,19,00,37,23.10
2015,07,19,00,38,23.10
2015,07,19,00,39,23.10
2015,07,19,00,40,23.10
2015,07,19,00,41,23.10
2015,07,19,00,42,23.10
2015,07,19,00,43,23.00
2015,07,19,00,44,23.00
2015,07,19,00,45,23.00
2015,07,19,00,46,23.00
2015,07,19,00,47,22.90
2015,07,19,00,48,22.90
2015,07,19,00,49,22.90
2015,07,19,00,50,22.90
2015,07,19,00,51,22.80
2015,07,19,00,52,22.80
2015,07,19,00,53,22.80
2015,07,19,00,54,22.80
2015,07,19,00,55,22.80
2015,07,19,00,56,22.80
2015,07,19,00,57,22.80
2015,07,19,00,58,22.80
2015,07,19,00,59,22.80
2015,07,19,01,00,22.80
2015,07,19,01,01,22.70
2015,07,19,01,02,22.70
2015,07,19,01,03,22.70
2015,07,19,01,04,22.70
2015,07,19,01,05,22.70
2015,07,19,01,06,22.60
2015,07,19,01,07,22.60
2015,07,19,01,08,22.60
2015,07,19,01,09,22.60
2015,07,19,01,10,22.60
2015,07,19,01,11,22.60
2015,07,19,01,12,22.60
2015,07,19,01,13,22.50
2015,07,19,01,14,22.50
2015,07,19,01,15,22.50
2015,07,19,01,16,22.40
2015,07,19,01,17,22.40
2015,07,19,01,18,22.40
2015,07,19,01,19,22.30
2015,07,19,01,20,22.30
2015,07,19,01,21,22.30
2015,07,19,01,22,22.30
2015,07,19,01,23,22.30
2015,07,19,01,24,22.20
2015,07,19,01,25,22.20
2015,07,19,01,26,22.20
2015,07,19,01,27,22.20
2015,07,19,01,28,22.20
2015,07,19,01,29,22.20
2015,07,19,01,30,22.20
2015,07,19,01,31,22.10
2015,07,19,01,32,22.10
2015,07,19,01,33,22.10
2015,07,19,01,34,22.10
2015,07,19,01,35,22.00
2015,07,19,01,36,22.00
2015,07,19,01,37,22.00
2015,07,19,01,38,21.90
2015,07,19,01,39,21.90
2015,07,19,01,40,21.90
2015,07,19,01,41,21.90
2015,07,19,01,42,21.90
2015,07,19,01,43,21.80
2015,07,19,01,44,21.80
2015,07,19,01,45,21.80
2015,07,19,01,46,21.70
2015,07,19,01,47,21.70
2015,07,19,01,48,21.70
2015,07,19,01,49,21.70
2015,07,19,01,50,21.60
2015,07,19,01,51,21.60
2015,07,19,01,52,21.60
2015,07,19,01,53,21.60
2015,07,19,01,54,21.50
2015,07,19,01,55,21.50
2015,07,19,01,56,21.50
2015,07,19,01,57,21.50
2015,07,19,01,58,21.40
2015,07,19,01,59,21.40
2015,07,19,02,00,21.40
2015,07,19,02,01,21.40
2015,07,19,02,02,21.40
2015,07,19,02,03,21.40
2015,07,19,02,04,21.40
2015,07,19,02,05,21.40
2015,07,19,02,06,21.30
2015,07,19,02,07,21.30
2015,07,19,02,08,21.30
2015,07,19,02,09,21.30
2015,07,19,02,10,21.30
2015,07,19,02,11,21.40
2015,07,19,02,12,21.40
2015,07,19,02,13,21.40
2015,07,19,02,14,21.40
2015,07,19,02,15,21.40
2015,07,19,02,16,21.40
2015,07,19,02,17,21.40
2015,07,19,02,18,21.40
2015,07,19,02,19,21.40
2015,07,19,02,20,21.40
2015,07,19,02,21,21.40
2015,07,19,02,22,21.40
2015,07,19,02,23,21.40
2015,07,19,02,24,21.40
2015,07,19,02,25,21.40
2015,07,19,02,26,21.40
2015,07,19,02,27,21.40
2015,07,19,02,28,21.30
2015,07,19,02,29,21.30
2015,07,19,02,30,21.30
2015,07,19,02,31,21.30
2015,07,19,02,32,21.30
2015,07,19,02,33,21.30
2015,07,19,02,34,21.30
2015,07,19,02,35,21.20
2015,07,19,02,36,21.20
2015,07,19,02,37,21.20
2015,07,19,02,38,21.20
2015,07,19,02,39,21.20
2015,07,19,02,40,21.20
2015,07,19,02,41,21.20
2015,07,19,02,42,21.20
2015,07,19,02,43,21.20
2015,07,19,02,44,21.20
2015,07,19,02,45,21.20
2015,07,19,02,46,21.20
2015,07,19,02,47,21.20
2015,07,19,02,48,21.20
2015,07,19,02,49,21.20
2015,07,19,02,50,21.20
2015,07,19,02,51,21.20
2015,07,19,02,52,21.20
2015,07,19,02,53,21.20
2015,07,19,02,54,21.20
2015,07,19,02,55,21.20
2015,07,19,02,56,21.20
2015,07,19,02,57,21.20
2015,07,19,02,58,21.20
2015,07,19,02,59,21.20
2015,07,19,03,00,21.20
2015,07,19,03,01,21.20
2015,07,19,03,02,21.20
2015,07,19,03,06,21.10
2015,07,19,03,07,21.10
2015,07,19,03,08,21.10
2015,07,19,03,09,21.10
2015,07,19,03,10,21.10
2015,07,19,03,11,21.10
2015,07,19,03,12,21.10
2015,07,19,03,13,21.10
2015,07,19,03,14,21.10
2015,07,19,03,15,21.10
2015,07,19,03,16,21.10
2015,07,19,03,17,21.10
2015,07,19,03,18,21.10
2015,07,19,03,19,21.10
2015,07,19,03,20,21.10
2015,07,19,03,21,21.10
2015,07,19,03,22,21.10
2015,07,19,03,23,21.10
2015,07,19,03,24,21.10
2015,07,19,03,25,21.10
2015,07,19,03,26,21.10
2015,07,19,03,27,21.10
2015,07,19,03,28,21.10
2015,07,19,03,29,21.10
2015,07,19,03,30,21.10
2015,07,19,03,31,21.10
2015,07,19,03,32,21.20
2015,07,19,03,33,21.20
2015,07,19,03,34,21.20
2015,07,19,03,35,21.20
2015,07,19,03,36,21.20
2015,07,19,03,37,21.20
2015,07,19,03,38,21.20
2015,07,19,03,39,21.20
2015,07,19,03,40,21.20
2015,07,19,03,41,21.20
2015,07,19,03,42,21.20
2015,07,19,03,43,21.20
2015,07,19,03,44,21.20
2015,07,19,03,45,21.20
2015,07,19,03,46,21.20
2015,07,19,03,47,21.20
2015,07,19,03,48,21.20
2015,07,19,03,49,21.20
2015,07,19,03,50,21.20
2015,07,19,03,51,21.10
2015,07,19,03,52,21.10
2015,07,19,03,53,21.10
2015,07,19,03,54,21.10
2015,07,19,03,55,21.10
2015,07,19,03,56,21.10
2015,07,19,03,57,21.10
2015,07,19,03,58,21.10
2015,07,19,03,59,21.10
2015,07,19,04,00,21.10
2015,07,19,04,01,21.10
2015,07,19,04,02,21.10
2015,07,19,04,03,21.10
2015,07,19,04,04,21.10
2015,07,19,04,05,21.10
2015,07,19,04,06,21.10
2015,07,19,04,07,21.10
2015,07,19,04,08,21.10
2015,07,19,04,09,21.10
2015,07,19,04,10,21.10
2015,07,19,04,11,21.10
2015,07,19,04,12,21.10
2015,07,19,04,13,21.10
2015,07,19,04,14,21.10
2015,07,19,04,15,21.10
2015,07,19,04,16,21.10
2015,07,19,04,17,21.00
2015,07,19,04,18,21.00
2015,07,19,04,19,21.00
2015,07,19,04,20,20.90
2015,07,19,04,21,20.90
2015,07,19,04,22,20.90
2015,07,19,04,23,20.90
2015,07,19,04,24,20.90
2015,07,19,04,25,20.80
2015,07,19,04,26,20.80
2015,07,19,04,27,20.80
2015,07,19,04,28,20.80
2015,07,19,04,29,20.70
2015,07,19,04,30,20.70
2015,07,19,04,31,20.70
2015,07,19,04,32,20.60
2015,07,19,04,33,20.60
2015,07,19,04,34,20.60
2015,07,19,04,35,20.50
2015,07,19,04,36,20.50
2015,07,19,04,37,20.40
2015,07,19,04,38,20.40
2015,07,19,04,39,20.40
2015,07,19,04,40,20.30
2015,07,19,04,41,20.30
2015,07,19,04,42,20.30
2015,07,19,04,43,20.30
2015,07,19,04,44,20.30
2015,07,19,04,45,20.30
2015,07,19,04,46,20.20
2015,07,19,04,47,20.20
2015,07,19,04,48,20.20
2015,07,19,04,49,20.10
2015,07,19,04,50,20.10
2015,07,19,04,51,20.10
2015,07,19,04,52,20.10
2015,07,19,04,53,20.00
2015,07,19,04,54,20.00
2015,07,19,04,55,20.00
2015,07,19,04,56,19.90
2015,07,19,04,57,19.90
2015,07,19,04,58,19.90
2015,07,19,04,59,19.90
2015,07,19,05,00,19.80
2015,07,19,05,01,19.80
2015,07,19,05,02,19.80
2015,07,19,05,03,19.80
2015,07,19,05,04,19.80
2015,07,19,05,05,19.80
2015,07,19,05,06,19.80
2015,07,19,05,07,19.70
2015,07,19,05,08,19.70
2015,07,19,05,09,19.70
2015,07,19,05,10,19.70
2015,07,19,05,11,19.70
2015,07,19,05,12,19.70
2015,07,19,05,13,19.70
2015,07,19,05,14,19.70
2015,07,19,05,15,19.60
2015,07,19,05,16,19.60
2015,07,19,05,17,19.60
2015,07,19,05,18,19.60
2015,07,19,05,19,19.60
2015,07,19,05,20,19.60
2015,07,19,05,21,19.60
2015,07,19,05,22,19.60
2015,07,19,05,23,19.50
2015,07,19,05,24,19.50
2015,07,19,05,25,19.50
2015,07,19,05,26,19.50
2015,07,19,05,27,19.50
2015,07,19,05,28,19.40
2015,07,19,05,29,19.40
2015,07,19,05,30,19.40
2015,07,19,05,31,19.40
2015,07,19,05,32,19.40
2015,07,19,05,33,19.40
2015,07,19,05,34,19.30
2015,07,19,05,35,19.30
2015,07,19,05,36,19.30
2015,07,19,05,37,19.30
2015,07,19,05,38,19.30
2015,07,19,05,39,19.40
2015,07,19,05,40,19.40
2015,07,19,05,41,19.30
2015,07,19,05,42,19.30
2015,07,19,05,43,19.40
2015,07,19,05,44,19.40
2015,07,19,05,45,19.40
2015,07,19,05,46,19.40
2015,07,19,05,47,19.40
2015,07,19,05,48,19.40
2015,07,19,05,49,19.40
2015,07,19,05,50,19.40
2015,07,19,05,51,19.40
2015,07,19,05,52,19.40
2015,07,19,05,53,19.40
2015,07,19,05,54,19.40
2015,07,19,05,55,19.40
2015,07,19,05,56,19.40
2015,07,19,05,57,19.40
2015,07,19,05,58,19.40
2015,07,19,05,59,19.40
2015,07,19,06,00,19.40
2015,07,19,06,01,19.40
2015,07,19,06,02,19.40
2015,07,19,06,03,19.50
2015,07,19,06,04,19.50
2015,07,19,06,05,19.50
2015,07,19,06,06,19.50
2015,07,19,06,07,19.60
2015,07,19,06,08,19.60
2015,07,19,06,09,19.60
2015,07,19,06,10,19.60
2015,07,19,06,11,19.70
2015,07,19,06,12,19.70
2015,07,19,06,13,19.70
2015,07,19,06,14,19.70
2015,07,19,06,15,19.70
2015,07,19,06,16,19.70
2015,07,19,06,17,19.70
2015,07,19,06,18,19.70
2015,07,19,06,19,19.70
2015,07,19,06,20,19.70
2015,07,19,06,21,19.80
2015,07,19,06,22,19.80
2015,07,19,06,23,19.80
2015,07,19,06,24,19.80
2015,07,19,06,25,19.70
2015,07,19,06,26,19.70
2015,07,19,06,27,19.70
2015,07,19,06,28,19.70
2015,07,19,06,29,19.80
2015,07,19,06,30,19.80
2015,07,19,06,31,19.80
2015,07,19,06,32,19.80
2015,07,19,06,33,19.90
2015,07,19,06,34,19.90
2015,07,19,06,35,20.00
2015,07,19,06,36,20.00
2015,07,19,06,37,20.00
2015,07,19,06,38,20.10
2015,07,19,06,39,20.10
2015,07,19,06,40,20.10
2015,07,19,06,41,20.10
2015,07,19,06,42,20.20
2015,07,19,06,43,20.20
2015,07,19,06,44,20.30
2015,07,19,06,45,20.30
2015,07,19,06,46,20.30
2015,07,19,06,47,20.40
2015,07,19,06,48,20.50
2015,07,19,06,49,20.50
2015,07,19,06,50,20.50
2015,07,19,06,51,20.50
2015,07,19,06,52,20.60
2015,07,19,06,53,20.60
2015,07,19,06,54,20.60
2015,07,19,06,55,20.60
2015,07,19,06,56,20.70
2015,07,19,06,57,20.70
2015,07,19,06,58,20.80
2015,07,19,06,59,20.80
2015,07,19,07,00,20.80
2015,07,19,07,01,20.90
2015,07,19,07,02,20.90
2015,07,19,07,03,21.00
2015,07,19,07,04,21.10
2015,07,19,07,05,21.10
2015,07,19,07,06,21.20
2015,07,19,07,07,21.20
2015,07,19,07,08,21.20
2015,07,19,07,09,21.30
2015,07,19,07,10,21.30
2015,07,19,07,11,21.40
2015,07,19,07,12,21.40
2015,07,19,07,13,21.50
2015,07,19,07,14,21.60
2015,07,19,07,15,21.60
2015,07,19,07,16,21.70
2015,07,19,07,17,21.70
2015,07,19,07,18,21.80
2015,07,19,07,19,21.90
2015,07,19,07,20,22.00
2015,07,19,07,21,22.10
2015,07,19,07,22,22.10
2015,07,19,07,23,22.10
2015,07,19,07,24,22.20
2015,07,19,07,25,22.30
2015,07,19,07,26,22.30
2015,07,19,07,27,22.40
2015,07,19,07,28,22.50
2015,07,19,07,29,22.60
2015,07,19,07,30,22.60
2015,07,19,07,31,22.70
2015,07,19,07,32,22.70
2015,07,19,07,33,22.70
2015,07,19,07,34,22.70
2015,07,19,07,35,22.70
2015,07,19,07,36,22.70
2015,07,19,07,37,22.60
2015,07,19,07,38,22.60
2015,07,19,07,39,22.60
2015,07,19,07,40,22.60
2015,07,19,07,41,22.60
2015,07,19,07,42,22.60
2015,07,19,07,43,22.70
2015,07,19,07,44,22.70
2015,07,19,07,45,22.70
2015,07,19,07,46,22.70
2015,07,19,07,47,22.70
2015,07,19,07,48,22.70
2015,07,19,07,49,22.80
2015,07,19,07,50,22.80
2015,07,19,07,51,22.80
2015,07,19,07,52,22.80
2015,07,19,07,53,22.80
2015,07,19,07,54,22.90
2015,07,19,07,55,22.90
2015,07,19,07,56,22.90
2015,07,19,07,57,22.90
2015,07,19,07,58,22.90
2015,07,19,07,59,22.90
2015,07,19,08,00,22.90
2015,07,19,08,01,22.90
2015,07,19,08,02,22.90
2015,07,19,08,03,22.90
2015,07,19,08,04,22.90
2015,07,19,08,05,23.00
2015,07,19,08,06,23.00
2015,07,19,08,07,23.00
2015,07,19,08,08,23.10
2015,07,19,08,09,23.20
2015,07,19,08,10,23.20
2015,07,19,08,11,23.20
2015,07,19,08,12,23.20
2015,07,19,08,13,23.20
2015,07,19,08,14,23.20
2015,07,19,08,15,23.20
2015,07,19,08,16,23.20
2015,07,19,08,17,23.20
2015,07,19,08,18,23.20
2015,07,19,08,19,23.20
2015,07,19,08,20,23.20
2015,07,19,08,21,23.20
2015,07,19,08,22,23.20
2015,07,19,08,23,23.20
2015,07,19,08,24,23.20
2015,07,19,08,25,23.20
2015,07,19,08,26,23.20
2015,07,19,08,27,23.20
2015,07,19,08,28,23.30
2015,07,19,08,29,23.30
2015,07,19,08,30,23.30
2015,07,19,08,31,23.40
2015,07,19,08,32,23.40
2015,07,19,08,33,23.40
2015,07,19,08,34,23.50
2015,07,19,08,35,23.50
2015,07,19,08,36,23.50
2015,07,19,08,37,23.60
2015,07,19,08,38,23.60
2015,07,19,08,39,23.60
2015,07,19,08,40,23.60
2015,07,19,08,41,23.70
2015,07,19,08,42,23.70
2015,07,19,08,43,23.70
2015,07,19,08,44,23.80
2015,07,19,08,45,23.80
2015,07,19,08,46,23.80
2015,07,19,08,47,23.90
2015,07,19,08,48,24.00
2015,07,19,08,49,24.00
2015,07,19,08,50,24.20
2015,07,19,08,51,24.30
2015,07,19,08,52,24.40
2015,07,19,08,53,24.50
2015,07,19,08,54,24.60
2015,07,19,08,55,24.70
2015,07,19,08,56,24.80
2015,07,19,08,57,24.80
2015,07,19,08,58,24.80
2015,07,19,08,59,24.90
2015,07,19,09,00,24.90
2015,07,19,09,01,24.90
2015,07,19,09,02,24.90
2015,07,19,09,03,24.90
2015,07,19,09,04,24.90
2015,07,19,09,05,24.90
2015,07,19,09,06,24.80
2015,07,19,09,07,24.80
2015,07,19,09,08,24.90
2015,07,19,09,09,24.90
2015,07,19,09,10,24.90
2015,07,19,09,11,25.00
2015,07,19,09,12,24.90
2015,07,19,09,13,25.00
2015,07,19,09,14,25.00
2015,07,19,09,15,25.00
2015,07,19,09,16,25.10
2015,07,19,09,17,25.10
2015,07,19,09,18,25.10
2015,07,19,09,19,25.20
2015,07,19,09,20,25.20
2015,07,19,09,21,25.30
2015,07,19,09,22,25.30
2015,07,19,09,23,25.30
2015,07,19,09,24,25.30
2015,07,19,09,25,25.40
2015,07,19,09,26,25.40
2015,07,19,09,27,25.50
2015,07,19,09,28,25.50
2015,07,19,09,29,25.60
2015,07,19,09,30,25.60
2015,07,19,09,31,25.70
2015,07,19,09,32,25.70
2015,07,19,09,33,25.70
2015,07,19,09,34,25.70
2015,07,19,09,35,25.80
2015,07,19,09,36,25.80
2015,07,19,09,37,25.90
2015,07,19,09,38,25.90
2015,07,19,09,39,25.90
2015,07,19,09,40,25.90
2015,07,19,09,41,26.00
2015,07,19,09,42,26.00
2015,07,19,09,43,26.10
2015,07,19,09,44,26.10
2015,07,19,09,45,26.10
2015,07,19,09,46,26.10
2015,07,19,09,47,26.10
2015,07,19,09,48,26.10
2015,07,19,09,49,26.10
2015,07,19,09,50,26.10
2015,07,19,09,51,26.20
2015,07,19,09,52,26.20
2015,07,19,09,53,26.30
2015,07,19,09,54,26.30
2015,07,19,09,55,26.40
2015,07,19,09,56,26.40
2015,07,19,09,57,26.40
2015,07,19,09,58,26.50
2015,07,19,09,59,26.50
2015,07,19,10,00,26.60
2015,07,19,10,01,26.60
2015,07,19,10,02,26.60
2015,07,19,10,03,26.60
2015,07,19,10,04,26.50
2015,07,19,10,05,26.50
2015,07,19,10,06,26.40
2015,07,19,10,07,26.30
2015,07,19,10,08,26.40
2015,07,19,10,09,26.40
2015,07,19,10,10,26.40
2015,07,19,10,11,26.40
2015,07,19,10,12,26.50
2015,07,19,10,13,26.60
2015,07,19,10,14,26.60
2015,07,19,10,15,26.60
2015,07,19,10,16,26.60
2015,07,19,10,17,26.60
2015,07,19,10,18,26.60
2015,07,19,10,19,26.50
2015,07,19,10,20,26.50
2015,07,19,10,21,26.50
2015,07,19,10,22,26.50
2015,07,19,10,23,26.60
2015,07,19,10,24,26.60
2015,07,19,10,25,26.60
2015,07,19,10,26,26.70
2015,07,19,10,27,26.80
2015,07,19,10,28,26.80
2015,07,19,10,29,26.80
2015,07,19,10,30,26.90
2015,07,19,10,31,26.90
2015,07,19,10,32,27.00
2015,07,19,10,33,27.00
2015,07,19,10,34,27.10
2015,07,19,10,35,27.10
2015,07,19,10,36,27.30
2015,07,19,10,37,27.40
2015,07,19,10,38,27.40
2015,07,19,10,39,27.50
2015,07,19,10,40,27.50
2015,07,19,10,41,27.40
2015,07,19,10,42,27.40
2015,07,19,10,43,27.40
2015,07,19,10,44,27.40
2015,07,19,10,45,27.40
2015,07,19,10,46,27.30
2015,07,19,10,47,27.30
2015,07,19,10,48,27.30
2015,07,19,10,49,27.30
2015,07,19,10,50,27.30
2015,07,19,10,51,27.30
2015,07,19,10,52,27.30
2015,07,19,10,53,27.30
2015,07,19,10,54,27.40
2015,07,19,10,55,27.40
2015,07,19,10,56,27.40
2015,07,19,10,57,27.50
2015,07,19,10,58,27.60
2015,07,19,10,59,27.70
2015,07,19,11,00,27.80
2015,07,19,11,01,27.80
2015,07,19,11,02,27.90
2015,07,19,11,03,27.90
2015,07,19,11,04,28.00
2015,07,19,11,05,28.00
2015,07,19,11,06,28.10
2015,07,19,11,07,28.10
2015,07,19,11,08,28.20
2015,07,19,11,09,28.20
2015,07,19,11,10,28.30
2015,07,19,11,11,28.40
2015,07,19,11,12,28.40
2015,07,19,11,13,28.30
2015,07,19,11,14,28.30
2015,07,19,11,15,28.30
2015,07,19,11,16,28.30
2015,07,19,11,17,28.40
2015,07,19,11,18,28.40
2015,07,19,11,19,28.50
2015,07,19,11,20,28.50
2015,07,19,11,21,28.50
2015,07,19,11,22,28.60
2015,07,19,11,23,28.60
2015,07,19,11,24,28.50
2015,07,19,11,25,28.50
2015,07,19,11,26,28.50
2015,07,19,11,27,28.50
2015,07,19,11,28,28.50
2015,07,19,11,29,28.50
2015,07,19,11,30,28.50
2015,07,19,11,31,28.50
2015,07,19,11,32,28.60
2015,07,19,11,33,28.70
2015,07,19,11,34,28.80
2015,07,19,11,35,28.90
2015,07,19,11,36,28.90
2015,07,19,11,37,29.00
2015,07,19,11,38,29.10
2015,07,19,11,39,29.20
2015,07,19,11,40,29.30
2015,07,19,11,41,29.30
2015,07,19,11,42,29.40
2015,07,19,11,43,29.50
2015,07,19,11,44,29.50
2015,07,19,11,45,29.50
2015,07,19,11,46,29.50
2015,07,19,11,47,29.60
2015,07,19,11,48,29.60
2015,07,19,11,49,29.60
2015,07,19,11,50,29.60
2015,07,19,11,51,29.60
2015,07,19,11,52,29.70
2015,07,19,11,53,29.70
2015,07,19,11,54,29.80
2015,07,19,11,55,29.80
2015,07,19,11,56,29.90
2015,07,19,11,57,29.90
2015,07,19,11,58,30.00
2015,07,19,11,59,30.10
2015,07,19,12,00,30.10
2015,07,19,12,01,30.10
2015,07,19,12,02,30.00
2015,07,19,12,03,30.00
2015,07,19,12,04,29.90
2015,07,19,12,05,29.80
2015,07,19,12,06,29.90
2015,07,19,12,07,29.90
2015,07,19,12,08,29.90
2015,07,19,12,09,30.00
2015,07,19,12,10,30.00
2015,07,19,12,11,30.10
2015,07,19,12,12,30.10
2015,07,19,12,13,30.20
2015,07,19,12,14,30.30
2015,07,19,12,15,30.30
2015,07,19,12,16,30.20
2015,07,19,12,17,30.10
2015,07,19,12,18,30.10
2015,07,19,12,19,30.00
2015,07,19,12,20,30.00
2015,07,19,12,21,29.90
2015,07,19,12,22,29.90
2015,07,19,12,23,29.90
2015,07,19,12,24,30.00
2015,07,19,12,25,30.00
2015,07,19,12,26,30.10
2015,07,19,12,27,30.20
2015,07,19,12,28,30.40
2015,07,19,12,29,30.50
2015,07,19,12,30,30.60
2015,07,19,12,31,30.60
2015,07,19,12,32,30.60
2015,07,19,12,33,30.60
2015,07,19,12,34,30.50
2015,07,19,12,35,30.40
2015,07,19,12,36,30.20
2015,07,19,12,37,30.00
2015,07,19,12,38,29.90
2015,07,19,12,39,29.90
2015,07,19,12,40,29.80
2015,07,19,12,41,29.80
2015,07,19,12,42,29.90
2015,07,19,12,43,30.00
2015,07,19,12,44,30.10
2015,07,19,12,45,30.20
2015,07,19,12,46,30.40
2015,07,19,12,47,30.50
2015,07,19,12,48,30.70
2015,07,19,12,49,30.80
2015,07,19,12,50,30.90
2015,07,19,12,51,31.00
2015,07,19,12,52,31.00
2015,07,19,12,53,31.10
2015,07,19,12,54,31.10
2015,07,19,12,55,31.00
2015,07,19,12,56,30.80
2015,07,19,12,57,30.80
2015,07,19,12,58,30.80
2015,07,19,12,59,30.80
2015,07,19,13,00,30.80
2015,07,19,13,01,30.70
2015,07,19,13,02,30.70
2015,07,19,13,03,30.70
2015,07,19,13,04,30.70
2015,07,19,13,05,30.70
2015,07,19,13,06,30.70
2015,07,19,13,07,30.70
2015,07,19,13,08,30.50
2015,07,19,13,09,30.30
2015,07,19,13,10,30.30
2015,07,19,13,11,30.20
2015,07,19,13,12,30.20
2015,07,19,13,13,30.20
2015,07,19,13,14,30.30
2015,07,19,13,15,30.40
2015,07,19,13,16,30.40
2015,07,19,13,17,30.40
2015,07,19,13,18,30.40
2015,07,19,13,19,30.30
2015,07,19,13,20,30.20
2015,07,19,13,21,30.10
2015,07,19,13,22,30.10
2015,07,19,13,23,30.10
2015,07,19,13,24,30.10
2015,07,19,13,25,30.10
2015,07,19,13,26,30.10
2015,07,19,13,27,30.10
2015,07,19,13,28,30.10
2015,07,19,13,29,30.10
2015,07,19,13,30,30.20
2015,07,19,13,31,30.20
2015,07,19,13,32,30.10
2015,07,19,13,33,30.20
2015,07,19,13,34,30.20
2015,07,19,13,35,30.20
2015,07,19,13,36,30.20
2015,07,19,13,37,30.30
2015,07,19,13,38,30.50
2015,07,19,13,39,30.50
2015,07,19,13,40,30.60
2015,07,19,13,41,30.60
2015,07,19,13,42,30.50
2015,07,19,13,43,30.50
2015,07,19,13,44,30.50
2015,07,19,13,45,30.60
2015,07,19,13,46,30.60
2015,07,19,13,47,30.70
2015,07,19,13,48,30.70
2015,07,19,13,49,30.80
2015,07,19,13,50,30.80
2015,07,19,13,51,30.90
2015,07,19,13,52,31.00
2015,07,19,13,53,31.10
2015,07,19,13,54,31.10
2015,07,19,13,55,31.20
2015,07,19,13,56,31.20
2015,07,19,13,57,31.20
2015,07,19,13,58,31.20
2015,07,19,13,59,31.30
2015,07,19,14,00,31.20
2015,07,19,14,01,31.30
2015,07,19,14,02,31.30
2015,07,19,14,03,31.30
2015,07,19,14,04,31.30
2015,07,19,14,05,31.30
2015,07,19,14,06,31.20
2015,07,19,14,07,31.30
2015,07,19,14,08,31.20
2015,07,19,14,09,31.10
2015,07,19,14,10,31.20
2015,07,19,14,11,31.20
2015,07,19,14,12,31.20
2015,07,19,14,13,31.20
2015,07,19,14,14,31.20
2015,07,19,14,15,31.20
2015,07,19,14,16,31.30
2015,07,19,14,17,31.40
2015,07,19,14,18,31.40
2015,07,19,14,19,31.50
2015,07,19,14,20,31.60
2015,07,19,14,21,31.60
2015,07,19,14,22,31.80
2015,07,19,14,23,31.90
2015,07,19,14,24,32.00
2015,07,19,14,25,32.10
2015,07,19,14,26,32.20
2015,07,19,14,27,32.20
2015,07,19,14,28,32.30
2015,07,19,14,29,32.40
2015,07,19,14,30,32.50
2015,07,19,14,31,32.50
2015,07,19,14,32,32.60
2015,07,19,14,33,32.60
2015,07,19,14,34,32.60
2015,07,19,14,35,32.70
2015,07,19,14,36,32.70
2015,07,19,14,37,32.70
2015,07,19,14,38,32.60
2015,07,19,14,39,32.60
2015,07,19,14,40,32.60
2015,07,19,14,41,32.60
2015,07,19,14,42,32.50
2015,07,19,14,43,32.40
2015,07,19,14,44,32.40
2015,07,19,14,45,32.30
2015,07,19,14,46,32.10
2015,07,19,14,47,32.10
2015,07,19,14,48,32.10
2015,07,19,14,49,32.00
2015,07,19,14,50,32.00
2015,07,19,14,51,31.90
2015,07,19,14,52,31.80
2015,07,19,14,53,31.80
2015,07,19,14,54,31.90
2015,07,19,14,55,31.90
2015,07,19,14,56,32.00
2015,07,19,14,57,32.00
2015,07,19,14,58,31.90
2015,07,19,14,59,31.90
2015,07,19,15,00,32.00
2015,07,19,15,01,32.00
2015,07,19,15,02,31.80
2015,07,19,15,03,31.80
2015,07,19,15,04,31.60
2015,07,19,15,05,31.60
2015,07,19,15,06,31.60
2015,07,19,15,07,31.50
2015,07,19,15,08,31.40
2015,07,19,15,09,31.30
2015,07,19,15,10,31.40
2015,07,19,15,11,31.40
2015,07,19,15,12,31.50
2015,07,19,15,13,31.60
2015,07,19,15,14,31.80
2015,07,19,15,15,31.90
2015,07,19,15,16,32.00
2015,07,19,15,17,32.10
2015,07,19,15,18,32.10
2015,07,19,15,19,32.10
2015,07,19,15,20,32.10
2015,07,19,15,21,32.00
2015,07,19,15,22,32.00
2015,07,19,15,23,31.90
2015,07,19,15,24,31.90
2015,07,19,15,25,31.90
2015,07,19,15,26,31.90
2015,07,19,15,27,31.80
2015,07,19,15,28,31.80
2015,07,19,15,29,31.90
2015,07,19,15,30,31.90
2015,07,19,15,31,31.80
2015,07,19,15,32,31.70
2015,07,19,15,33,31.70
2015,07,19,15,34,31.80
2015,07,19,15,35,31.80
2015,07,19,15,36,31.90
2015,07,19,15,37,31.90
2015,07,19,15,38,31.90
2015,07,19,15,39,31.90
2015,07,19,15,40,32.00
2015,07,19,15,41,32.00
2015,07,19,15,42,32.00
2015,07,19,15,43,31.90
2015,07,19,15,44,31.80
2015,07,19,15,45,31.70
2015,07,19,15,46,31.70
2015,07,19,15,47,31.60
2015,07,19,15,48,31.60
2015,07,19,15,49,31.50
2015,07,19,15,50,31.40
2015,07,19,15,51,31.30
2015,07,19,15,52,31.20
2015,07,19,15,53,31.20
2015,07,19,15,54,31.20
2015,07,19,15,55,31.10
2015,07,19,15,56,31.10
2015,07,19,15,57,31.00
2015,07,19,15,58,31.00
2015,07,19,15,59,30.90
2015,07,19,16,00,30.90
2015,07,19,16,01,30.90
2015,07,19,16,02,31.00
2015,07,19,16,03,31.00
2015,07,19,16,04,31.00
2015,07,19,16,05,31.10
2015,07,19,16,06,31.10
2015,07,19,16,07,31.10
2015,07,19,16,08,31.00
2015,07,19,16,09,31.00
2015,07,19,16,10,30.90
2015,07,19,16,11,31.00
2015,07,19,16,12,31.00
2015,07,19,16,13,31.10
2015,07,19,16,14,31.00
2015,07,19,16,15,30.90
2015,07,19,16,16,30.90
2015,07,19,16,17,30.80
2015,07,19,16,18,30.80
2015,07,19,16,19,30.80
2015,07,19,16,20,30.80
2015,07,19,16,21,30.80
2015,07,19,16,22,30.80
2015,07,19,16,23,30.70
2015,07,19,16,24,30.70
2015,07,19,16,25,30.80
2015,07,19,16,26,30.90
2015,07,19,16,27,30.90
2015,07,19,16,28,30.90
2015,07,19,16,29,30.90
2015,07,19,16,30,30.80
2015,07,19,16,31,30.80
2015,07,19,16,32,30.80
2015,07,19,16,33,30.70
2015,07,19,16,34,30.70
2015,07,19,16,35,30.70
2015,07,19,16,36,30.70
2015,07,19,16,37,30.80
2015,07,19,16,38,30.80
2015,07,19,16,39,30.80
2015,07,19,16,40,30.80
2015,07,19,16,41,30.80
2015,07,19,16,42,30.70
2015,07,19,16,43,30.70
2015,07,19,16,44,30.70
2015,07,19,16,45,30.60
2015,07,19,16,46,30.50
2015,07,19,16,47,30.40
2015,07,19,16,48,30.30
2015,07,19,16,49,30.20
2015,07,19,16,50,30.20
2015,07,19,16,51,30.10
2015,07,19,16,52,30.10
2015,07,19,16,53,30.10
2015,07,19,16,54,30.20
2015,07,19,16,55,30.30
2015,07,19,16,56,30.30
2015,07,19,16,57,30.40
2015,07,19,16,58,30.50
2015,07,19,16,59,30.70
2015,07,19,17,00,30.70
2015,07,19,17,01,30.80
2015,07,19,17,02,30.80
2015,07,19,17,03,30.80
2015,07,19,17,04,30.80
2015,07,19,17,05,30.70
2015,07,19,17,06,30.60
2015,07,19,17,07,30.50
2015,07,19,17,08,30.40
2015,07,19,17,09,30.40
2015,07,19,17,10,30.50
2015,07,19,17,11,30.50
2015,07,19,17,12,30.50
2015,07,19,17,13,30.50
2015,07,19,17,14,30.50
2015,07,19,17,15,30.50
2015,07,19,17,16,30.40
2015,07,19,17,17,30.40
2015,07,19,17,18,30.30
2015,07,19,17,19,30.30
2015,07,19,17,20,30.30
2015,07,19,17,21,30.30
2015,07,19,17,22,30.30